Regional Weather Roundup
Issued by NWS

Home | Current Version | Previous Version | Graphics & Text | Print | Product List | Glossary On
Versions: 1 2 3 4 5 6 7 8 9 10 11 12 13 14 15 16 17 18 19 20 21 22 23 24 25 26 27 28 29 30 31 32 33 34 35 36 37 38 39 40 41 42 43 44 45 46 47 48 49 50
000
ASUS43 KLOT 242103
RWRIL

ILLINOIS REGIONAL WEATHER ROUNDUP
NATIONAL WEATHER SERVICE CHICAGO/ROMEOVILLE IL
400 PM CDT SAT SEP 24 2016

NOTE: "FAIR" INDICATES FEW OR NO CLOUDS BELOW 12,000 FEET WITH NO
SIGNIFICANT WEATHER AND/OR OBSTRUCTIONS TO VISIBILITY.

* THESE STATIONS ARE NOT UNDER NWS QUALITY CONTROL. THEY ALSO MAY NOT
  REPORT WEATHER SUCH AS PRECIPITATION OR FOG.

ILZ001-002-007-009-015-016-024-242200-
NORTHWEST ILLINOIS

CITY           SKY/WX    TMP DP  RH WIND       PRES   REMARKS
MOLINE         SUNNY     82  70  66 E12       30.06F HX  86
STERLING*      SUNNY     78  68  71 VRB6      30.10F HX  80
$$

ILZ003-004-008-010-011-017-018-242200-
NORTH CENTRAL ILLINOIS

CITY           SKY/WX    TMP DP  RH WIND       PRES   REMARKS
ROCKFORD       PTSUNNY   75  64  68 E12       30.14F
FREEPORT*      PTSUNNY   74  65  73 E8        30.14F
ROCHELLE*      MOSUNNY   78  66  67 E8        30.12F HX  80
$$

ILZ005-006-012>014-019>023-242200-
NORTHEAST ILLINOIS

CITY           SKY/WX    TMP DP  RH WIND       PRES   REMARKS
CHICAGO-OHARE  MOSUNNY   73  63  70 E10       30.14F
CHICAGO-MIDWAY MOSUNNY   74  63  68 NE10      30.14F
AURORA         CLOUDY    76  65  68 NE9       30.13F
LANSING*       SUNNY     74  66  75 NE9       30.14S
WAUKEGAN       CLOUDY    69  62  78 E10       30.16F
DUPAGE AIRPORT SUNNY     75  64  68 E12       30.13F
KANKAKEE*      CLOUDY    82  67  61 E8        30.11F HX  84
WHEELING       SUNNY     71  62  73 E10       30.16F
NORTHERLY ISL    N/A     71  62  73 NE9         N/A
$$

LMZ740>746-242200-
SOUTHERN LAKE MICHIGAN

STATION/POSITION SKY/WX   TEMP    WIND        PRES    VSBY  WAVE
                          AIR SEA DIR/SP/G                  HT/PER
                          (F)     (DEG/KT/KT) (MB)    (MI)  (FT/S)
SOUTHERN BUOY              67 72  100/ 12/ 14 1021.5          2/ 4
WILMETTE HARBOR            66 66   90/  6/  8   N/A           3/ 5
HARRISON CRIB              69      40/ 12/ 14   N/A
BURNHAM HARBOR             71      30/  6/ 11   N/A
CALUMET HARBOR             70      20/ 11/ 13 1020.8F
BURNS HARBOR               70      50/ 14/ 16 1021.0F
MICHIGAN CITY              69      10/ 13/ 14   N/A
MICHIGAN CITY 6N           70 71   40/ 14/ 17   N/A           3/ 5
ST. JOSEPH                 72 71   80/  6/  8 1021.2F         1
$$

ILZ025>027-034>036-040-047-049-050-058-095>099-242200-
WEST-CENTRAL ILLINOIS

CITY           SKY/WX    TMP DP  RH WIND       PRES   REMARKS
QUINCY         SUNNY     88  62  41 SE8       30.02F HX  88
GALESBURG*     SUNNY     86  64  48 SE5       30.06F HX  87
MACOMB*        SUNNY     89  62  40 S7        30.05F HX  89
$$

ILZ028>032-037-038-041>044-048-051>054-059>061-242200-
CENTRAL ILLINOIS

CITY           SKY/WX    TMP DP  RH WIND       PRES   REMARKS
BLOOMINGTON    PTSUNNY   86  66  51 VRB5      30.08F HX  88
DECATUR        SUNNY     90  63  40 S7        30.06F HX  91
PEORIA         SUNNY     87  67  51 CALM      30.06F HX  90
SPRINGFIELD    SUNNY     91  61  36 SE8       30.05F HX  91
TAYLORVILLE    NOT AVBL
$$

ILZ033-039-045-046-055>057-062-063-242200-
EAST-CENTRAL ILLINOIS

CITY           SKY/WX    TMP DP  RH WIND       PRES   REMARKS
CHAMPAIGN      SUNNY     86  65  49 NE3       30.07F HX  88
MATTOON        SUNNY     88  59  37 S6        30.07F HX  87
$$

ILZ079-100>102-242200-
SOUTHWEST ILLINOIS

CITY           SKY/WX    TMP DP  RH WIND       PRES   REMARKS
ALTON          MOSUNNY   86  66  51 VRB6      30.05F HX  88
BELLEVILLE     MOSUNNY   90  65  43 S7        30.02F HX  92
CAHOKIA*       SUNNY     91  61  36 SE5       30.03F HX  91
SPARTA*        SUNNY     87  68  51 W3        30.06S HX  91
$$

ILZ064>066-069>071-074>076-080>082-084>086-088>090-092>094-242200-
SOUTH-CENTRAL ILLINOIS

CITY           SKY/WX    TMP DP  RH WIND       PRES   REMARKS
CARBONDALE     MOSUNNY   88  70  55 VRB5      30.05F HX  93
MARION         PTSUNNY   90  68  48 S7        30.06F HX  93
MT. VERNON     MOSUNNY   88  66  48 CALM      30.07S HX  90
CENTRALIA*     SUNNY     90  70  51 SE3       30.05F HX  94
SALEM*         SUNNY     89  65  44 S5        30.06F HX  90
METROPOLIS*    SUNNY     92  65  40 CALM      30.05F HX  94
$$

ILZ067-068-072-073-078-083-087-091-242200-
SOUTHEAST ILLINOIS

CITY           SKY/WX    TMP DP  RH WIND       PRES   REMARKS
LAWRENCEVILLE  MOSUNNY   89  62  40 N5        30.06F HX  89
FLORA*         MOSUNNY   90  66  44 W5        30.06F HX  92
HARRISBURG*    SUNNY     90  68  47 CALM      30.06F HX  93
ROBINSON*      MOSUNNY   87  65  47 SE6       30.07F HX  88
$$

ABBREVIATIONS USED IN REMARKS
   TC - TEMPERATURE IN CELSIUS
  WCI - WIND CHILL INDEX
   HX - HEAT INDEX
  VSB - VISIBILITY
$$





USA.gov is the U.S. government's official web portal to all federal, state and local government web resources and services.